Location: Goheenville
(40.9070°N, 79.3720°W)
Time: 04:02:29
(UTC-04:00)

Meteor 2-10 Rocket - Visible Passes

Search period start: 01 April 2015 00:00
Search period end: 11 April 2015 00:00
Orbit: 735 x 885 km, 81.2° (Epoch: 30 March)

Date Brightness Start Highest point End Pass type
(mag) Time Alt. Az. Time Alt. Az. Time Alt. Az.
01 Apr 6.4 01:30:46 12° NE 01:30:46 12° NE 01:31:21 10° NNE visible
01 Apr 5.8 03:11:55 20° NNW 03:11:55 20° NNW 03:13:52 10° N visible
02 Apr 5.8 02:47:54 21° N 02:47:54 21° N 02:49:51 10° N visible
03 Apr 5.9 02:23:53 21° N 02:23:53 21° N 02:25:45 10° N visible
04 Apr 6.0 01:59:50 20° NNE 01:59:50 20° NNE 02:01:35 10° NNE visible
04 Apr 6.1 03:40:59 12° NW 03:40:59 12° NW 03:41:46 10° NNW visible
05 Apr 6.1 01:35:47 19° NNE 01:35:47 19° NNE 01:37:18 10° NNE visible
05 Apr 6.0 03:16:56 15° NNW 03:16:56 15° NNW 03:18:20 10° NNW visible
06 Apr 6.2 01:11:44 16° NNE 01:11:44 16° NNE 01:12:56 10° NNE visible
06 Apr 5.9 02:52:52 18° NNW 02:52:52 18° NNW 02:54:38 10° NNW visible
07 Apr 6.3 00:47:39 13° NE 00:47:39 13° NE 00:48:26 10° NNE visible
07 Apr 5.9 02:28:48 20° NNW 02:28:48 20° NNW 02:30:45 10° N visible
08 Apr 6.4 00:23:34 11° NE 00:23:34 11° NE 00:23:46 10° NE visible
08 Apr 5.8 02:04:43 22° N 02:04:43 22° N 02:06:46 10° N visible
09 Apr 5.8 01:40:37 23° N 01:40:37 23° N 01:42:41 10° N visible
10 Apr 5.8 01:16:30 23° NNE 01:16:30 23° NNE 01:18:31 10° N visible
10 Apr 6.2 02:57:38 12° NW 02:57:38 12° NW 02:58:23 10° NNW visible
